Regional Weather Roundup
Issued by NWS

Home | Current Version | Previous Version | Text Only | Print | Product List | Glossary On
Versions: 1 2 3 4 5 6 7 8 9 10 11 12 13 14 15 16 17 18 19 20 21 22 23 24 25 26 27 28 29 30 31 32 33 34 35 36 37 38 39 40 41 42 43 44 45 46 47 48 49 50
000
ASUS44 KMEG 010600
RWRTN
TENNESSEE HOURLY STATE WEATHER ROUNDUP
NATIONAL WEATHER SERVICE MEMPHIS TN
100 AM CDT TUE SEP 01 2015

TNZ002-004-019-021-049-052-054-088>092-010700-
WEST TENNESSEE

CITY           SKY/WX    TMP DP  RH WIND       PRES   REMARKS
MEMPHIS INTL   FAIR      78  68  71 SE5       30.07S
NWS MEMPHIS      N/A     73 N/A N/A MISG        N/A
JACKSON        FAIR      68  66  93 CALM      30.09R FOG
DYERSBURG      FAIR      70  68  94 CALM      30.09S
UNION CITY     CLEAR    N/A N/A N/A CALM      30.08S
PARIS          CLEAR     64  63  94 CALM      30.10S
LEXINGTON      CLEAR     66  66 100 CALM      30.09S
$$

TNZ008-025-027-028-033-062-065-066-010700-
NORTH MIDDLE TENNESSEE

CITY           SKY/WX    TMP DP  RH WIND       PRES   REMARKS
NASHVILLE      FAIR      72  66  81 CALM      30.11S
CLARKSVILLE    FAIR      67  66  97 CALM      30.10S
COOKEVILLE     CLEAR     64  64 100 CALM      30.13S
CROSSVILLE     FAIR      66  63  90 CALM      30.18S FOG
$$

TNZ061-075-076-078-094-096-097-010700-
SOUTH MIDDLE TENNESSEE

CITY           SKY/WX    TMP DP  RH WIND       PRES   REMARKS
FAYETTEVILLE   CLEAR     66  66 100 CALM      30.12S
TULLAHOMA      CLEAR     64  63  94 CALM      30.14S
WINCHESTER     CLEAR     64  64 100 CALM      30.13S
COLUMBIA       CLEAR     68  68 100 CALM      30.10S
SHELBYVILLE    CLEAR     70  70 100 CALM      30.13R
$$

TNZ017-018-042-046-047-010700-
NORTHEAST TENNESSEE

CITY           SKY/WX    TMP DP  RH WIND       PRES   REMARKS
TRI CITIES     FAIR      65  63  93 CALM      30.15F FOG
$$

TNZ012-013-036-069-073-074-010700-
CENTRAL EAST TENNESSEE

CITY           SKY/WX    TMP DP  RH WIND       PRES   REMARKS
KNOXVILLE      NOT AVBL
OAK RIDGE      FAIR      69  65  86 CALM      30.14S
GATLINBURG     PTCLDY    66  63  88 CALM      30.12F
$$

TNZ083-085-099-010700-
SOUTHEAST TENNESSEE

CITY           SKY/WX    TMP DP  RH WIND       PRES   REMARKS
CHATTANOOGA    FAIR      71  67  87 CALM      30.12S
$$

SKY/WX REPORTED AS FAIR MEANS FEW OR NO CLOUDS BELOW
12 THOUSAND FEET.




USA.gov is the U.S. government's official web portal to all federal, state and local government web resources and services.